2000,7,1,0,5,-5.72,01,0.00,06,0.49,01,-5.49,01,29.07,01,13.22,01
2000,7,1,0,10,-5.21,01,0.00,06,0.66,01,-4.93,01,28.95,01,13.29,01
2000,7,1,0,15,-5.61,01,0.00,06,0.30,01,-5.41,01,29.00,01,13.04,01
2000,7,1,0,20,-5.89,01,0.00,06,-0.04,01,-5.95,01,28.79,01,13.02,01
2000,7,1,0,25,-5.89,01,0.00,06,-0.20,01,-5.72,01,28.68,01,13.17,01
2000,7,1,0,30,-5.89,01,0.00,06,-0.39,01,-5.75,01,28.54,01,13.27,01
2000,7,1,0,35,-5.89,01,0.00,06,-0.36,01,-5.81,01,28.32,01,13.31,01
2000,7,1,0,40,-5.70,01,0.00,06,-0.21,01,-5.46,01,28.16,01,13.45,01
2000,7,1,0,45,-5.13,01,0.00,06,0.06,01,-4.34,01,28.15,01,13.57,01
2000,7,1,0,50,-4.95,01,0.00,06,0.18,01,-4.03,01,28.23,01,13.53,01
2000,7,1,0,55,-5.34,01,0.00,06,0.04,01,-4.69,01,28.25,01,13.53,01
2000,7,1,1,0,-5.89,01,0.00,06,-0.27,01,-5.77,01,28.09,01,13.52,01
2000,7,1,1,5,-5.85,01,0.00,06,-0.19,01,-5.32,01,27.82,01,13.77,01
2000,7,1,1,10,-5.47,01,0.00,06,-0.10,01,-4.89,01,27.81,01,13.82,01
2000,7,1,1,15,-5.86,01,0.00,06,-0.29,01,-5.63,01,27.66,01,13.82,01
2000,7,1,1,20,-5.83,01,0.00,06,-0.48,01,-5.54,01,27.46,01,13.86,01
2000,7,1,1,25,-5.68,01,0.00,06,-0.33,01,-5.34,01,27.36,01,13.84,01
2000,7,1,1,30,-5.34,01,0.00,06,0.10,01,-4.84,01,27.36,01,13.79,01
2000,7,1,1,35,-4.66,01,0.00,06,0.39,01,-4.11,01,27.45,01,13.69,01
2000,7,1,1,40,-4.33,01,0.00,06,0.31,01,-4.03,01,27.47,01,13.68,01
2000,7,1,1,45,-4.79,01,0.00,06,0.04,01,-4.37,01,27.34,01,13.76,01
2000,7,1,1,50,-5.28,01,0.00,06,0.03,01,-4.82,01,27.19,01,13.77,01
2000,7,1,1,55,-5.39,01,0.00,06,0.13,01,-5.04,01,27.11,01,13.80,01
2000,7,1,2,0,-5.02,01,0.00,06,0.32,01,-4.46,01,27.16,01,13.84,01
2000,7,1,2,5,-4.47,01,0.00,06,0.56,01,-4.04,01,27.28,01,13.86,01
2000,7,1,2,10,-5.29,01,0.00,06,0.28,01,-4.84,01,27.34,01,13.85,01
2000,7,1,2,15,-5.41,01,0.00,06,0.28,01,-5.25,01,27.20,01,13.83,01
2000,7,1,2,20,-5.40,01,0.00,06,0.16,01,-5.17,01,27.04,01,13.96,01
2000,7,1,2,25,-5.85,01,0.00,06,0.01,01,-5.75,01,26.92,01,14.01,01
2000,7,1,2,30,-5.87,01,0.00,06,0.13,01,-5.91,01,26.85,01,13.95,01
2000,7,1,2,35,-5.55,01,0.00,06,0.30,01,-5.37,01,26.83,01,13.79,01
2000,7,1,2,40,-5.81,01,0.00,06,0.04,01,-5.39,01,26.79,01,13.80,01
2000,7,1,2,45,-5.81,01,0.00,06,-0.20,01,-5.10,01,26.59,01,14.10,01
2000,7,1,2,50,-5.47,01,0.00,06,-0.42,01,-4.80,01,26.44,01,14.17,01
2000,7,1,2,55,-5.11,01,0.00,06,-0.54,01,-4.34,01,26.02,01,14.67,01
2000,7,1,3,0,-4.02,01,0.00,06,0.23,01,-3.55,01,26.22,01,14.57,01
2000,7,1,3,5,-3.83,01,0.00,06,0.35,01,-3.58,01,26.40,01,14.63,01
2000,7,1,3,10,-3.73,01,0.00,06,0.98,01,-3.55,01,26.74,01,14.59,01
2000,7,1,3,15,-4.13,01,0.00,06,0.61,01,-3.92,01,26.77,01,14.49,01
2000,7,1,3,20,-4.97,01,0.00,06,-0.46,01,-4.64,01,26.26,01,14.97,01
2000,7,1,3,25,-4.62,01,0.00,06,-0.55,01,-4.24,01,26.09,01,15.32,01
2000,7,1,3,30,-5.34,01,0.00,06,-0.15,01,-4.73,01,26.05,01,15.30,01
2000,7,1,3,35,-4.67,01,0.00,06,-0.61,01,-4.23,01,26.01,01,15.31,01
2000,7,1,3,40,-4.57,01,0.00,06,-0.76,01,-4.41,01,25.67,01,15.38,01
2000,7,1,3,45,-3.91,01,0.00,06,-0.11,01,-3.79,01,25.93,01,15.01,01
2000,7,1,3,50,-4.38,01,0.00,06,-0.03,01,-4.00,01,25.97,01,15.06,01
2000,7,1,3,55,-4.96,01,0.00,06,-0.65,01,-4.20,01,25.68,01,15.57,01
2000,7,1,4,0,-5.23,01,0.00,06,-0.53,01,-4.48,01,25.45,01,15.87,01
2000,7,1,4,5,-5.08,01,0.00,06,-1.41,01,-4.54,01,25.20,01,16.26,01
2000,7,1,4,10,-4.26,01,0.00,06,0.16,01,-3.83,01,25.34,01,16.50,01
2000,7,1,4,15,-4.77,01,0.00,06,-0.27,01,-4.18,01,25.48,01,16.49,01
2000,7,1,4,20,-5.16,01,0.00,06,-0.32,01,-4.63,01,25.52,01,16.49,01
2000,7,1,4,25,-5.02,01,0.00,06,-0.33,01,-4.65,01,25.46,01,16.52,01
2000,7,1,4,30,-4.89,01,0.00,06,-0.64,01,-4.34,01,25.26,01,16.59,01
2000,7,1,4,35,-5.12,01,0.00,06,-0.73,01,-4.46,01,25.15,01,16.69,01
2000,7,1,4,40,-4.67,01,0.00,06,-0.68,01,-4.15,01,25.07,01,16.73,01
2000,7,1,4,45,-4.91,01,0.00,06,-0.83,01,-4.35,01,24.83,01,16.96,01
2000,7,1,4,50,-4.64,01,0.00,06,-0.60,01,-4.19,01,24.80,01,17.35,01
2000,7,1,4,55,-4.71,01,0.00,06,-0.64,01,-4.24,01,24.85,01,17.66,01
2000,7,1,5,0,-3.96,01,0.00,06,-0.14,01,-3.70,01,24.87,01,19.16,01
2000,7,1,5,5,-3.53,01,0.00,06,0.35,01,-3.13,01,25.05,01,22.03,01
2000,7,1,5,10,-3.90,01,0.00,06,-0.51,01,-3.61,01,24.92,01,23.46,01
2000,7,1,5,15,-3.92,01,0.00,06,-0.74,01,-4.08,01,24.66,01,25.21,01
2000,7,1,5,20,-2.29,01,0.00,06,-0.04,01,-2.29,01,24.83,01,26.41,01
2000,7,1,5,25,-0.24,01,-0.19,06,0.39,01,-0.19,01,24.98,01,27.43,01
2000,7,1,5,30,3.29,01,3.38,06,0.89,01,3.36,01,25.13,01,28.90,01
2000,7,1,5,35,5.57,01,5.74,06,0.89,01,5.70,01,25.18,01,29.70,01
2000,7,1,5,40,8.62,01,8.60,06,0.72,01,8.56,01,25.05,01,31.03,01
2000,7,1,5,45,16.23,01,15.99,06,1.32,01,15.88,01,25.06,01,32.29,01
2000,7,1,5,50,25.62,01,25.16,06,2.18,01,24.94,01,25.16,01,33.68,01
2000,7,1,5,55,35.28,01,34.62,06,3.00,01,34.27,01,25.22,01,34.39,01
2000,7,1,6,0,46.71,01,45.44,06,4.37,01,44.84,01,25.22,01,35.27,01
2000,7,1,6,5,61.94,01,60.02,06,6.41,01,59.02,01,25.32,01,36.47,01
2000,7,1,6,10,78.31,01,75.87,06,8.38,01,74.40,01,25.62,01,36.73,01
2000,7,1,6,15,93.88,03,90.80,06,9.79,03,88.90,03,25.75,01,36.20,01
2000,7,1,6,20,110.04,03,106.46,06,11.09,03,104.10,03,25.77,01,35.57,01
2000,7,1,6,25,125.44,03,121.51,06,12.56,03,118.60,03,25.79,01,34.54,01
2000,7,1,6,30,142.41,03,137.86,06,13.80,03,134.40,03,25.80,01,33.58,01
2000,7,1,6,35,159.87,03,154.91,06,14.89,03,150.90,03,25.86,01,32.33,01
2000,7,1,6,40,178.13,03,172.55,06,16.14,03,167.90,03,25.90,01,31.75,01
2000,7,1,6,45,196.66,03,190.73,06,17.70,03,185.30,03,26.07,01,31.09,01
2000,7,1,6,50,216.29,03,209.41,06,18.79,03,203.30,03,26.39,01,29.23,01
2000,7,1,6,55,234.72,03,227.03,06,19.86,03,220.20,03,26.68,01,27.64,01
2000,7,1,7,0,251.98,03,244.35,06,21.11,03,236.70,03,26.85,01,27.26,01
2000,7,1,7,5,270.31,03,263.77,06,20.94,03,255.80,03,27.30,01,21.45,01
2000,7,1,7,10,289.27,03,282.10,06,20.81,03,273.80,03,27.83,01,19.81,01
2000,7,1,7,15,307.85,03,299.81,06,21.37,03,290.90,03,28.04,01,21.04,01
2000,7,1,7,20,325.70,03,317.50,06,22.77,03,307.60,03,28.25,01,20.83,01
2000,7,1,7,25,330.06,03,322.10,06,21.65,03,312.30,03,28.90,01,19.80,01
2000,7,1,7,30,362.75,03,352.45,06,22.02,03,342.10,03,29.00,01,19.07,01
2000,7,1,7,35,384.42,03,373.55,06,23.07,03,362.30,03,29.37,01,19.98,01
2000,7,1,7,40,404.02,03,391.77,06,22.14,03,380.60,03,29.82,01,21.17,01
2000,7,1,7,45,424.04,03,410.61,06,21.86,03,399.20,03,30.03,01,21.75,01
2000,7,1,7,50,441.36,03,427.93,06,22.70,03,415.70,03,30.28,01,24.23,01
2000,7,1,7,55,460.20,03,446.72,06,23.45,03,433.70,03,30.86,01,28.06,01
2000,7,1,8,0,477.87,03,463.51,06,22.76,03,450.50,03,31.33,01,29.19,01
2000,7,1,8,5,495.83,03,480.61,06,21.79,03,467.80,03,31.59,01,29.98,01
2000,7,1,8,10,512.73,03,497.12,06,21.39,03,484.20,03,31.91,01,31.15,01
2000,7,1,8,15,528.17,03,513.62,06,21.00,03,500.60,03,32.31,01,31.83,01
2000,7,1,8,20,538.79,03,525.65,06,20.53,03,512.60,03,32.83,01,30.06,01
2000,7,1,8,25,556.63,03,544.83,06,19.25,03,532.30,03,32.96,01,25.60,01
2000,7,1,8,30,576.64,03,567.34,06,19.28,03,554.50,03,33.15,01,18.56,01
2000,7,1,8,35,590.39,03,583.58,06,18.78,03,570.80,03,33.15,01,18.47,01
2000,7,1,8,40,602.60,03,599.02,06,19.01,03,585.80,03,33.33,01,17.10,01
2000,7,1,8,45,620.54,03,620.93,06,19.91,03,606.80,03,33.69,01,17.38,01
2000,7,1,8,50,634.91,03,639.22,06,20.76,03,624.20,03,34.20,01,19.32,01
2000,7,1,8,55,647.02,03,654.37,06,20.45,03,639.30,03,34.60,01,22.92,01
2000,7,1,9,0,662.83,03,674.60,06,20.78,03,659.00,03,35.10,01,22.14,01
2000,7,1,9,5,683.27,25,698.11,06,19.52,24,683.20,08,35.21,01,18.50,01
2000,7,1,9,10,699.89,29,718.04,06,19.37,28,703.00,08,35.35,01,17.44,01
2000,7,1,9,15,713.88,25,733.94,06,20.20,24,718.00,08,35.78,01,15.43,01
2000,7,1,9,20,731.44,29,753.47,06,19.31,28,738.00,08,36.03,01,12.65,01
2000,7,1,9,25,746.97,41,771.09,06,19.79,40,755.00,08,36.46,01,11.00,01
2000,7,1,9,30,760.48,41,785.85,06,19.22,40,770.00,08,36.63,01,9.89,01
2000,7,1,9,35,773.99,45,800.02,06,19.17,44,784.00,08,36.86,01,9.50,01
2000,7,1,9,40,787.47,45,813.57,06,18.40,44,798.00,08,37.06,01,9.38,01
2000,7,1,9,45,797.96,45,825.06,06,17.58,44,810.00,08,37.04,01,9.42,01
2000,7,1,9,50,806.44,45,839.41,06,18.93,44,823.00,08,37.34,01,9.40,01
2000,7,1,9,55,796.08,02,1070.32,06,271.80,02,832.00,08,37.62,01,9.29,01
2000,7,1,10,0,863.15,22,932.39,06,684.00,23,326.20,23,37.90,01,9.20,01
2000,7,1,10,5,875.55,03,872.93,06,689.30,03,255.80,03,38.08,01,9.20,01
2000,7,1,10,10,885.95,03,883.09,06,692.70,03,256.90,03,38.22,01,9.27,01
2000,7,1,10,15,893.36,03,890.12,06,693.00,03,257.90,03,38.33,01,9.47,01
2000,7,1,10,20,905.73,03,901.77,06,699.80,03,257.80,03,38.59,01,9.34,01
2000,7,1,10,25,914.26,03,910.32,06,703.00,03,258.10,03,38.69,01,9.52,01
2000,7,1,10,30,923.90,03,918.70,06,707.00,03,257.70,03,38.66,01,9.59,01
2000,7,1,10,35,931.56,03,925.73,06,708.00,03,259.00,03,38.77,01,10.05,01
2000,7,1,10,40,940.20,03,935.94,06,712.00,03,260.90,03,39.11,01,9.92,01
2000,7,1,10,45,938.94,03,932.77,06,702.00,03,263.00,03,39.04,01,9.97,01
2000,7,1,10,50,941.64,03,935.72,06,698.80,03,265.10,03,39.18,01,9.95,01
2000,7,1,10,55,950.28,03,942.24,06,702.00,03,264.90,03,39.00,01,10.22,01
2000,7,1,11,0,965.84,03,959.97,06,716.00,03,265.70,03,39.21,01,10.07,01
2000,7,1,11,5,969.58,03,965.26,06,718.00,03,265.90,03,39.47,01,9.76,01
2000,7,1,11,10,972.42,03,970.07,06,720.00,03,265.90,03,39.67,01,9.65,01
2000,7,1,11,15,973.28,03,973.78,06,723.00,03,264.10,03,39.67,01,9.59,01
2000,7,1,11,20,975.13,03,977.93,06,725.00,03,264.00,03,39.82,01,9.52,01
2000,7,1,11,25,976.00,03,980.20,06,727.00,03,262.30,03,39.73,01,9.44,01
2000,7,1,11,30,977.86,03,983.77,06,729.00,03,262.20,03,39.98,01,9.32,01
2000,7,1,11,35,982.70,03,989.82,06,734.00,03,261.90,03,39.86,01,9.29,01
2000,7,1,11,40,980.63,03,991.04,06,731.00,03,265.00,03,39.88,01,9.23,01
2000,7,1,11,45,971.67,03,980.87,06,707.00,03,277.90,03,40.13,01,9.08,01
2000,7,1,11,50,926.15,03,930.20,06,655.70,03,277.80,03,40.18,01,8.95,01
2000,7,1,11,55,974.57,03,979.65,06,700.00,03,283.00,03,40.25,01,8.80,01
2000,7,1,12,0,977.55,03,983.27,06,693.70,03,293.00,03,40.30,01,8.78,01
2000,7,1,12,5,899.65,03,901.29,06,617.00,03,287.70,03,40.31,01,8.66,01
2000,7,1,12,10,955.91,03,958.73,06,668.20,03,294.90,03,40.38,01,8.65,01
2000,7,1,12,15,811.06,03,805.57,06,531.10,03,278.70,03,40.39,01,8.54,01
2000,7,1,12,20,1012.45,03,1016.68,06,727.00,03,296.80,03,40.54,01,8.47,01
2000,7,1,12,25,1023.44,03,1026.65,06,735.00,03,300.50,03,40.92,01,8.33,01
2000,7,1,12,30,1040.38,03,1035.65,06,731.00,03,315.40,03,41.07,01,8.28,01
2000,7,1,12,35,986.11,03,975.86,06,654.70,03,332.80,03,40.82,01,8.32,01
2000,7,1,12,40,924.91,03,911.67,06,570.40,03,353.40,03,40.60,01,8.37,01
2000,7,1,12,45,950.76,03,940.72,06,579.50,03,375.80,03,40.77,01,8.33,01
2000,7,1,12,50,805.61,03,791.00,06,424.20,03,379.30,03,40.90,01,8.27,01
2000,7,1,12,55,884.90,03,871.57,06,489.40,03,398.90,03,40.92,01,8.27,01
2000,7,1,13,0,872.38,03,862.19,06,481.20,03,399.90,03,41.08,01,8.22,01
2000,7,1,13,5,757.05,03,742.96,06,364.70,03,394.60,03,41.12,01,8.18,01
2000,7,1,13,10,857.10,03,844.43,06,458.70,03,409.00,03,40.92,01,8.27,01
2000,7,1,13,15,759.27,03,748.22,06,380.20,03,389.70,03,40.99,01,8.24,01
2000,7,1,13,20,819.24,03,807.52,06,432.80,03,402.30,03,40.89,01,8.28,01
2000,7,1,13,25,918.17,03,911.50,06,536.50,03,413.00,03,41.15,01,8.16,01
2000,7,1,13,30,727.25,03,719.57,06,363.10,03,384.90,03,41.64,01,7.94,01
2000,7,1,13,35,761.01,03,746.06,06,382.30,03,396.70,03,41.25,01,8.03,01
2000,7,1,13,40,935.50,03,922.60,06,539.30,03,434.20,03,41.18,01,8.02,01
2000,7,1,13,45,889.36,03,876.19,06,504.00,03,424.10,03,41.29,01,7.98,01
2000,7,1,13,50,796.59,03,785.56,06,426.30,03,407.00,03,41.07,01,8.02,01
2000,7,1,13,55,869.53,03,862.01,06,503.50,03,419.60,03,41.34,01,7.94,01
2000,7,1,14,0,719.20,03,712.10,06,354.10,03,404.40,03,41.42,01,7.93,01
2000,7,1,14,5,633.41,03,622.84,06,281.80,03,380.80,03,41.24,01,7.94,01
2000,7,1,14,10,796.35,03,783.31,06,459.90,03,393.10,03,41.34,01,7.90,01
2000,7,1,14,15,956.40,03,943.55,06,629.40,03,416.30,03,41.24,01,7.91,01
2000,7,1,14,20,804.30,03,795.20,06,487.30,03,392.40,03,41.57,01,7.79,01
2000,7,1,14,25,616.51,03,613.17,06,308.00,03,362.10,03,41.60,01,7.78,01
2000,7,1,14,30,886.20,03,879.58,06,592.60,03,403.50,03,41.47,01,7.82,01
2000,7,1,14,35,824.76,03,818.45,06,532.00,03,397.50,03,41.70,01,7.74,01
2000,7,1,14,40,796.25,03,793.62,06,494.60,03,408.40,03,42.01,01,7.64,01
2000,7,1,14,45,819.75,03,813.71,06,497.60,03,432.50,03,41.92,01,7.64,01
2000,7,1,14,50,836.49,09,825.05,06,489.40,09,456.50,09,41.78,01,7.65,01
2000,7,1,14,55,657.06,03,649.32,06,311.10,03,419.20,03,41.94,01,7.63,01
2000,7,1,15,0,431.44,03,424.15,06,102.40,03,349.80,03,41.80,01,7.66,01
2000,7,1,15,5,413.28,03,405.99,06,90.70,03,341.40,03,40.98,01,7.85,01
2000,7,1,15,10,565.70,03,558.05,06,256.40,03,379.10,03,41.13,01,7.79,01
2000,7,1,15,15,440.59,03,435.69,06,120.70,03,353.20,03,41.25,01,7.73,01
2000,7,1,15,20,390.12,03,384.71,06,71.80,03,336.70,03,41.23,01,7.75,01
2000,7,1,15,25,412.39,03,402.66,06,87.60,03,345.40,03,40.94,01,7.76,01
2000,7,1,15,30,410.34,03,401.68,06,86.60,03,346.40,03,40.96,01,7.74,01
2000,7,1,15,35,416.42,03,408.10,06,137.60,03,322.40,03,40.95,01,7.74,01
2000,7,1,15,40,311.75,03,308.70,06,65.07,03,269.20,03,41.34,01,7.62,01
2000,7,1,15,45,285.35,03,283.65,06,95.50,03,227.20,03,41.33,01,7.61,01
2000,7,1,15,50,195.69,03,195.14,06,8.60,03,190.20,03,41.07,01,7.70,01
2000,7,1,15,55,235.67,03,231.61,06,35.83,03,211.60,03,40.64,01,7.78,01
2000,7,1,16,0,479.13,03,469.27,06,356.90,03,275.90,03,40.69,01,7.76,01
2000,7,1,16,5,574.30,03,565.12,06,487.50,03,309.20,03,41.08,01,7.69,01
2000,7,1,16,10,508.82,03,502.54,06,402.50,03,298.10,03,41.54,01,7.61,01
2000,7,1,16,15,404.59,03,398.92,06,256.00,03,273.30,03,41.24,01,7.62,01
2000,7,1,16,20,413.32,03,405.03,06,309.80,03,258.40,03,41.10,01,7.65,01
2000,7,1,16,25,378.18,03,371.74,06,274.80,03,246.50,03,41.22,01,7.60,01
2000,7,1,16,30,453.43,03,447.98,06,436.00,03,257.00,03,41.87,01,7.46,01
2000,7,1,16,35,447.30,03,443.49,06,449.10,03,254.80,03,42.40,01,7.29,01
2000,7,1,16,40,417.37,03,412.45,06,421.60,03,242.90,03,41.89,01,7.46,01
2000,7,1,16,45,339.06,03,333.29,06,286.70,03,223.20,03,41.67,01,7.47,01
2000,7,1,16,50,318.27,03,311.73,06,269.40,03,213.20,03,41.23,01,7.57,01
2000,7,1,16,55,282.33,03,274.57,06,261.60,03,183.70,03,41.08,01,7.61,01
2000,7,1,17,0,242.33,03,235.72,06,250.00,03,153.50,03,41.07,01,7.60,01
2000,7,1,17,5,148.70,03,145.98,06,48.59,03,130.90,03,40.89,01,7.65,01
2000,7,1,17,10,149.15,03,147.50,06,41.49,03,135.40,03,40.62,01,7.74,01
2000,7,1,17,15,177.15,03,174.09,06,100.00,03,146.80,03,40.64,01,7.75,01
2000,7,1,17,20,150.64,03,147.45,06,15.95,03,143.40,03,40.52,01,7.75,01
2000,7,1,17,25,169.66,03,166.26,06,104.40,03,141.70,03,40.60,01,7.76,01
2000,7,1,17,30,151.94,03,148.57,06,42.84,03,139.30,03,40.50,01,7.85,01
2000,7,1,17,35,130.03,03,127.75,06,44.85,03,118.90,03,40.40,01,7.84,01
2000,7,1,17,40,115.43,03,115.06,06,113.00,03,94.90,03,40.44,01,7.85,01
2000,7,1,17,45,86.42,01,85.97,06,58.10,01,76.70,01,40.38,01,7.85,01
2000,7,1,17,50,73.50,01,74.29,06,79.80,01,63.07,01,40.34,01,7.86,01
2000,7,1,17,55,65.31,01,66.05,06,69.07,01,57.64,01,40.39,01,7.85,01
2000,7,1,18,0,60.02,01,60.14,06,42.12,01,55.81,01,40.50,01,7.80,01
2000,7,1,18,5,52.16,01,51.73,06,18.68,01,50.16,01,40.27,01,7.82,01
2000,7,1,18,10,39.18,01,38.68,06,12.52,01,37.86,01,40.11,01,7.96,01
2000,7,1,18,15,24.29,01,23.82,06,3.25,01,23.67,01,39.92,01,8.05,01
2000,7,1,18,20,12.04,01,12.02,06,-0.63,01,12.04,01,39.78,01,8.02,01
2000,7,1,18,25,1.37,01,1.68,06,-1.33,01,1.70,01,39.71,01,8.13,01
2000,7,1,18,30,-4.22,01,0.00,06,-1.64,01,-4.13,01,39.61,01,8.15,01
2000,7,1,18,35,-6.62,01,0.00,06,-1.75,01,-6.44,01,39.44,01,8.19,01
2000,7,1,18,40,-8.85,01,0.00,06,-1.83,01,-8.50,01,39.30,01,8.34,01
2000,7,1,18,45,-8.21,01,0.00,06,-1.27,01,-8.03,01,39.26,01,8.27,01
2000,7,1,18,50,-7.38,01,0.00,06,-1.05,01,-7.43,01,39.26,01,8.31,01
2000,7,1,18,55,-7.45,01,0.00,06,-1.05,01,-7.55,01,39.06,01,8.43,01
2000,7,1,19,0,-7.63,01,0.00,06,-1.20,01,-7.63,01,38.84,01,8.62,01
2000,7,1,19,5,-7.47,01,0.00,06,-0.93,01,-7.59,01,38.72,01,8.47,01
2000,7,1,19,10,-7.31,01,0.00,06,-0.91,01,-7.45,01,38.53,01,8.38,01
2000,7,1,19,15,-6.83,01,0.00,06,-0.66,01,-6.53,01,38.40,01,8.42,01
2000,7,1,19,20,-6.29,01,0.00,06,-0.36,01,-5.86,01,38.41,01,8.40,01
2000,7,1,19,25,-6.34,01,0.00,06,-0.58,01,-5.98,01,38.28,01,8.54,01
2000,7,1,19,30,-6.21,01,0.00,06,-0.66,01,-5.83,01,38.13,01,8.66,01
2000,7,1,19,35,-6.19,01,0.00,06,-0.75,01,-5.80,01,37.98,01,8.73,01
2000,7,1,19,40,-6.33,01,0.00,06,-0.73,01,-5.99,01,37.82,01,8.83,01
2000,7,1,19,45,-6.33,01,0.00,06,-0.62,01,-6.19,01,37.70,01,8.73,01
2000,7,1,19,50,-5.88,01,0.00,06,-0.37,01,-5.84,01,37.64,01,8.70,01
2000,7,1,19,55,-6.12,01,0.00,06,-0.57,01,-5.95,01,37.42,01,8.79,01
2000,7,1,20,0,-5.65,01,0.00,06,0.09,01,-5.81,01,37.16,01,8.72,01
2000,7,1,20,5,-5.28,01,0.00,06,-0.07,01,-5.54,01,36.97,01,8.57,01
2000,7,1,20,10,-5.11,01,0.00,06,0.04,01,-4.96,01,36.84,01,8.60,01
2000,7,1,20,15,-5.10,01,0.00,06,-0.20,01,-5.02,01,36.75,01,8.50,01
2000,7,1,20,20,-5.35,01,0.00,06,-0.31,01,-5.43,01,36.58,01,8.53,01
2000,7,1,20,25,-5.63,01,0.00,06,-0.37,01,-5.95,01,36.43,01,8.55,01
2000,7,1,20,30,-6.43,01,0.00,06,-0.68,01,-6.57,01,36.19,01,8.58,01
2000,7,1,20,35,-6.51,01,0.00,06,-0.64,01,-6.59,01,35.91,01,8.65,01
2000,7,1,20,40,-6.27,01,0.00,06,-0.77,01,-6.21,01,35.70,01,8.72,01
2000,7,1,20,45,-6.47,01,0.00,06,-0.82,01,-6.25,01,35.66,01,8.69,01
2000,7,1,20,50,-6.34,01,0.00,06,-0.83,01,-6.32,01,35.57,01,8.71,01
2000,7,1,20,55,-5.89,01,0.00,06,-0.58,01,-5.99,01,35.45,01,8.79,01
2000,7,1,21,0,-5.32,01,0.00,06,-0.56,01,-5.77,01,35.34,01,8.80,01
2000,7,1,21,5,-4.93,01,0.00,06,-0.21,01,-5.30,01,35.35,01,8.84,01
2000,7,1,21,10,-4.58,01,0.00,06,0.16,01,-4.71,01,35.32,01,8.86,01
2000,7,1,21,15,-4.16,01,0.00,06,0.34,01,-3.89,01,35.28,01,8.91,01
2000,7,1,21,20,-4.01,01,0.00,06,0.28,01,-3.73,01,35.31,01,8.90,01
2000,7,1,21,25,-4.43,01,0.00,06,0.14,01,-4.59,01,35.27,01,9.07,01
2000,7,1,21,30,-5.18,01,0.00,06,-0.07,01,-5.26,01,35.29,01,9.31,01
2000,7,1,21,35,-5.42,01,0.00,06,-0.28,01,-5.66,01,35.34,01,9.60,01
2000,7,1,21,40,-6.27,01,0.00,06,-0.81,01,-6.39,01,34.98,01,9.58,01
2000,7,1,21,45,-5.92,01,0.00,06,-0.34,01,-5.50,01,34.84,01,9.39,01
2000,7,1,21,50,-5.81,01,0.00,06,-0.32,01,-5.48,01,35.00,01,9.02,01
2000,7,1,21,55,-5.60,01,0.00,06,-0.22,01,-5.35,01,35.01,01,8.94,01
2000,7,1,22,0,-5.63,01,0.00,06,-0.50,01,-5.38,01,34.89,01,9.00,01
2000,7,1,22,5,-6.07,01,0.00,06,-0.69,01,-5.94,01,34.72,01,9.03,01
2000,7,1,22,10,-5.75,01,0.00,06,-0.21,01,-5.72,01,34.48,01,9.16,01
2000,7,1,22,15,-5.62,01,0.00,06,-0.47,01,-5.58,01,34.30,01,9.05,01
2000,7,1,22,20,-5.96,01,0.00,06,-0.73,01,-5.75,01,33.89,01,9.06,01
2000,7,1,22,25,-6.08,01,0.00,06,-0.71,01,-5.72,01,33.56,01,9.09,01
2000,7,1,22,30,-5.98,01,0.00,06,-0.49,01,-5.67,01,33.44,01,9.15,01
2000,7,1,22,35,-5.91,01,0.00,06,-0.44,01,-5.93,01,33.37,01,9.12,01
2000,7,1,22,40,-5.99,01,0.00,06,-0.54,01,-6.25,01,33.14,01,9.27,01
2000,7,1,22,45,-6.18,01,0.00,06,-0.48,01,-6.24,01,32.97,01,9.36,01
2000,7,1,22,50,-6.03,01,0.00,06,-0.32,01,-5.80,01,32.80,01,9.41,01
2000,7,1,22,55,-5.27,01,0.00,06,-0.03,01,-4.50,01,33.10,01,9.43,01
2000,7,1,23,0,-4.43,01,0.00,06,0.08,01,-3.66,01,33.53,01,9.16,01
2000,7,1,23,5,-4.34,01,0.00,06,0.41,01,-3.61,01,33.61,01,9.13,01
2000,7,1,23,10,-5.45,01,0.00,06,0.06,01,-4.79,01,33.50,01,9.14,01
2000,7,1,23,15,-6.34,01,0.00,06,-0.01,01,-6.58,01,33.14,01,9.15,01
2000,7,1,23,20,-6.63,01,0.00,06,-0.64,01,-6.70,01,32.49,01,9.06,01
2000,7,1,23,25,-7.08,01,0.00,06,-1.00,01,-6.70,01,31.95,01,9.28,01
2000,7,1,23,30,-6.87,01,0.00,06,-0.72,01,-6.70,01,31.80,01,9.57,01
2000,7,1,23,35,-6.76,01,0.00,06,-0.39,01,-6.70,01,31.82,01,9.75,01
2000,7,1,23,40,-6.71,01,0.00,06,-0.16,01,-6.70,01,31.86,01,10.04,01
2000,7,1,23,45,-6.81,01,0.00,06,-0.23,01,-6.70,01,31.80,01,10.31,01
2000,7,1,23,50,-6.26,01,0.00,06,-0.02,01,-5.63,01,31.69,01,9.95,01
2000,7,1,23,55,-5.60,01,0.00,06,0.27,01,-3.99,01,31.69,01,9.89,01
2000,7,2,0,0,-5.48,01,0.00,06,0.99,01,-3.97,01,31.82,01,9.72,01
2000,7,2,0,5,-5.54,01,0.00,06,0.22,01,-4.45,01,31.39,01,9.47,01
2000,7,2,0,10,-5.51,01,0.00,06,0.41,01,-4.51,01,31.21,01,9.74,01
2000,7,2,0,15,-5.53,01,0.00,06,0.09,01,-5.04,01,31.04,01,9.91,01
2000,7,2,0,20,-5.49,01,0.00,06,0.18,01,-4.63,01,31.01,01,9.98,01
2000,7,2,0,25,-5.40,01,0.00,06,0.15,01,-4.56,01,30.93,01,10.07,01
2000,7,2,0,30,-5.38,01,0.00,06,0.26,01,-4.70,01,30.92,01,10.10,01
2000,7,2,0,35,-5.28,01,0.00,06,0.19,01,-4.45,01,30.87,01,10.06,01
2000,7,2,0,40,-5.11,01,0.00,06,-0.11,01,-4.17,01,30.62,01,9.99,01
2000,7,2,0,45,-5.44,01,0.00,06,-0.21,01,-4.55,01,30.30,01,10.16,01
2000,7,2,0,50,-5.54,01,0.00,06,-0.24,01,-5.46,01,30.25,01,10.12,01
2000,7,2,0,55,-5.90,01,0.00,06,-0.82,01,-6.38,01,29.81,01,10.18,01
2000,7,2,1,0,-5.75,01,0.00,06,-0.50,01,-5.82,01,29.61,01,10.43,01
2000,7,2,1,5,-4.74,01,0.00,06,0.16,01,-4.11,01,29.84,01,10.46,01
2000,7,2,1,10,-4.40,01,0.00,06,0.42,01,-4.01,01,29.88,01,10.56,01
2000,7,2,1,15,-4.49,01,0.00,06,0.51,01,-4.02,01,29.92,01,10.65,01
2000,7,2,1,20,-5.19,01,0.00,06,0.21,01,-4.61,01,29.82,01,10.67,01
2000,7,2,1,25,-5.66,01,0.00,06,-0.13,01,-5.64,01,29.61,01,10.68,01
2000,7,2,1,30,-5.81,01,0.00,06,-0.34,01,-5.78,01,29.39,01,10.64,01
2000,7,2,1,35,-6.15,01,0.00,06,-1.28,01,-6.57,01,28.84,01,10.61,01
2000,7,2,1,40,-6.32,01,0.00,06,-1.06,01,-6.70,01,28.64,01,10.93,01
2000,7,2,1,45,-5.89,01,0.00,06,-0.89,01,-6.64,01,28.69,01,11.04,01
2000,7,2,1,50,-5.89,01,0.00,06,-0.88,01,-6.14,01,28.70,01,11.10,01
2000,7,2,1,55,-5.86,01,0.00,06,-0.78,01,-5.94,01,28.67,01,11.14,01
2000,7,2,2,0,-5.50,01,0.00,06,-0.51,01,-5.40,01,28.66,01,11.04,01
2000,7,2,2,5,-4.74,01,0.00,06,-0.27,01,-4.16,01,28.60,01,11.08,01
2000,7,2,2,10,-4.09,01,0.00,06,0.23,01,-3.85,01,28.69,01,11.25,01
2000,7,2,2,15,-4.19,01,0.00,06,0.28,01,-3.90,01,28.73,01,11.23,01
2000,7,2,2,20,-4.21,01,0.00,06,0.43,01,-4.02,01,28.70,01,11.42,01
2000,7,2,2,25,-3.70,01,0.00,06,0.54,01,-3.86,01,28.82,01,11.39,01
2000,7,2,2,30,-3.58,01,0.00,06,0.78,01,-3.24,01,28.90,01,11.39,01
2000,7,2,2,35,-3.92,01,0.00,06,0.32,01,-3.84,01,28.76,01,11.42,01
2000,7,2,2,40,-3.94,01,0.00,06,0.49,01,-4.02,01,28.79,01,11.46,01
2000,7,2,2,45,-4.11,01,0.00,06,0.47,01,-4.03,01,28.79,01,11.47,01
2000,7,2,2,50,-4.57,01,0.00,06,0.30,01,-4.25,01,28.76,01,11.37,01
2000,7,2,2,55,-4.95,01,0.00,06,0.10,01,-4.65,01,28.51,01,11.46,01
2000,7,2,3,0,-5.14,01,0.00,06,-0.19,01,-5.04,01,28.30,01,11.54,01
2000,7,2,3,5,-5.64,01,0.00,06,-0.39,01,-5.74,01,28.11,01,11.64,01
2000,7,2,3,10,-5.74,01,0.00,06,-0.31,01,-5.81,01,28.01,01,11.74,01
2000,7,2,3,15,-5.66,01,0.00,06,-0.40,01,-5.81,01,27.96,01,11.82,01
2000,7,2,3,20,-5.76,01,0.00,06,-0.34,01,-5.81,01,27.87,01,11.90,01
2000,7,2,3,25,-5.46,01,0.00,06,-0.01,01,-5.61,01,27.86,01,12.00,01
2000,7,2,3,30,-5.06,01,0.00,06,0.26,01,-4.96,01,27.96,01,12.03,01
2000,7,2,3,35,-5.01,01,0.00,06,0.32,01,-4.91,01,28.01,01,12.01,01
2000,7,2,3,40,-5.17,01,0.00,06,0.20,01,-4.99,01,27.96,01,11.97,01
2000,7,2,3,45,-5.10,01,0.00,06,0.09,01,-4.99,01,27.83,01,12.00,01
2000,7,2,3,50,-4.61,01,0.00,06,0.16,01,-4.28,01,27.74,01,12.06,01
2000,7,2,3,55,-3.87,01,0.00,06,0.23,01,-4.02,01,27.67,01,12.22,01
2000,7,2,4,0,-3.85,01,0.00,06,0.23,01,-4.02,01,27.63,01,12.29,01
2000,7,2,4,5,-3.81,01,0.00,06,0.23,01,-4.02,01,27.64,01,12.29,01
2000,7,2,4,10,-4.16,01,0.00,06,0.14,01,-4.03,01,27.62,01,12.30,01
2000,7,2,4,15,-4.25,01,0.00,06,0.16,01,-4.02,01,27.63,01,12.34,01
2000,7,2,4,20,-4.26,01,0.00,06,-0.11,01,-4.04,01,27.47,01,12.41,01
2000,7,2,4,25,-4.69,01,0.00,06,-0.25,01,-4.20,01,27.31,01,12.59,01
2000,7,2,4,30,-3.80,01,0.00,06,0.11,01,-3.93,01,27.50,01,12.60,01
2000,7,2,4,35,-3.55,01,0.00,06,0.14,01,-3.39,01,27.63,01,12.62,01
2000,7,2,4,40,-4.24,01,0.00,06,-0.38,01,-4.02,01,27.43,01,12.89,01
2000,7,2,4,45,-4.21,01,0.00,06,-0.36,01,-4.05,01,27.37,01,13.31,01
2000,7,2,4,50,-4.65,01,0.00,06,-0.56,01,-4.46,01,27.20,01,14.03,01
2000,7,2,4,55,-4.40,01,0.00,06,-0.56,01,-4.31,01,27.10,01,14.85,01
2000,7,2,5,0,-4.08,01,0.00,06,-0.48,01,-4.11,01,27.02,01,15.58,01
2000,7,2,5,5,-3.28,01,0.00,06,0.01,01,-3.19,01,27.22,01,16.05,01
2000,7,2,5,10,-3.15,01,0.00,06,-0.49,01,-3.14,01,26.98,01,16.34,01